[[{"header":{"parameterUnit":"m.s-1","parameterCategory":1,"la1":30.2991,"la2":30.254,"lo1":-89.0895,"lo2":-89.0444,"dx":0.0017,"dy":0.0017,"nx":28,"ny":28,"refTime":"2022-12-07T03:00:00:Z","depth":0,"parameterNumber":2,"parameterNumberName":"U-component_of_WINDS"},"data":[0,0,0,0,0,0,0,0,0,0,0,0,0,0,0,0,0,0,0,0,0,0,0,0,0,0,0,0,0,0,0,0,0,0,0,0,0,0,0,0,0,0,0,0,0,0,0,0,0,0,0,0,0,0,0,0,0,0,-0.6949,-0.6949,0,-0.6959,-0.6959,-0.6959,-0.6908,-0.6907,-0.6905,-0.6904,-0.6916,-0.6918,-0.692,0,0,0,0,0,0,0,0,0,0,0,0,0,-0.6888,-0.6889,-0.6949,-0.6949,-0.6949,-0.6959,-0.6959,-0.696,-0.6908,-0.6907,-0.6905,-0.6903,-0.6916,-0.6918,-0.692,0,0,0,0,0,0,0,0,0,0,0,0,0,-0.6908,-0.689,-0.6949,-0.6925,-0.6923,-0.6959,-0.6959,-0.696,-0.6909,-0.6907,-0.6904,-0.6902,-0.6915,-0.6917,-0.692,-0.6981,0,0,-0.6928,-0.6929,0,0,0,0,0,0,0,0,-0.6907,-0.691,-0.6928,-0.6927,-0.6924,-0.693,-0.6942,-0.6967,-0.6909,-0.6914,-0.6904,-0.6901,-0.6923,-0.6925,-0.6931,-0.6981,-0.6982,-0.6928,-0.693,-0.6931,-0.6932,0,0,0,0,0,0,0,-0.6906,-0.691,-0.6953,-0.6929,-0.6926,-0.6915,-0.6915,-0.6947,-0.6931,-0.6914,-0.691,-0.6912,-0.6921,-0.6929,-0.6931,-0.6982,-0.6928,-0.693,-0.6932,-0.6933,-0.7083,-0.7086,0,0,0,0,0,0,-0.6907,-0.6909,-0.6953,-0.6953,-0.691,-0.6917,-0.6918,-0.6931,-0.693,-0.6928,-0.6914,-0.6909,-0.6926,-0.6928,-0.6932,-0.7003,-0.6931,-0.6933,-0.6935,-0.7081,-0.7084,-0.7087,0,0,0,0,0,0,-0.6906,-0.6912,-0.6952,-0.693,-0.6934,-0.6921,-0.6936,-0.6932,-0.694,-0.693,-0.6928,-0.6924,-0.6924,-0.6928,-0.6969,-0.7003,-0.6934,-0.6937,-0.7078,-0.7082,-0.7085,-0.7147,0,0,0,0,0,0,-0.6905,-0.6911,-0.6934,-0.6931,-0.6936,-0.6989,-0.6938,-0.6934,-0.6944,-0.6938,-0.694,-0.6938,-0.6923,-0.6965,-0.6972,-0.7005,-0.6939,-0.7075,-0.708,-0.7084,-0.7142,-0.7152,-0.7161,0,0,0,0,0,-0.6902,-0.6951,-0.6935,-0.6941,-0.6963,-0.6991,-0.6994,-0.6975,-0.6947,-0.697,-0.6964,-0.6938,-0.6998,-0.697,-0.6976,-0.7012,-0.7073,-0.7078,-0.7084,-0.7137,-0.715,-0.7161,0,0,0,0,0,0,-0.6958,-0.695,-0.6932,-0.6981,-0.6987,-0.6982,-0.701,-0.6989,-0.7003,-0.6998,-0.6974,-0.6975,-0.702,-0.702,-0.6989,-0.7071,-0.7031,-0.7038,-0.7069,-0.7081,-0.7091,-0.709,-0.6941,0,0,0,0,0,-0.6976,-0.6998,-0.699,-0.7034,-0.7038,-0.7024,-0.7035,-0.702,-0.7026,-0.7028,-0.7025,-0.7032,-0.7053,-0.7067,-0.7086,-0.7141,-0.7142,-0.7169,-0.7179,-0.7187,-0.7193,-0.7224,-0.7236,-0.7105,-0.7105,-0.7104,0,0,-0.7013,-0.7011,-0.7027,-0.7045,-0.7048,-0.7073,-0.7026,-0.7054,-0.7073,-0.7033,-0.7071,-0.707,-0.7076,-0.7125,-0.7146,-0.7126,-0.723,-0.7194,-0.72,-0.7202,-0.7231,-0.7244,-0.7255,-0.7108,-0.7108,-0.7107,0,0,-0.7094,-0.7094,-0.7131,-0.7135,-0.714,-0.7131,-0.714,-0.7138,-0.7136,-0.7174,-0.7145,-0.7167,-0.7203,-0.7209,-0.7217,-0.7301,-0.7278,-0.7308,-0.7359,-0.7389,-0.7399,-0.7408,-0.744,-0.7451,-0.7314,-0.7314,-0.7314,0,-0.714,-0.7175,-0.7153,-0.7183,-0.7193,-0.7157,-0.7195,-0.7201,-0.7212,-0.7219,-0.7196,-0.7241,-0.7243,-0.7294,-0.7314,-0.7322,-0.7332,-0.7307,-0.7399,-0.7408,-0.7417,-0.7446,-0.7458,-0.7318,-0.7318,-0.7317,-0.7317,0,-0.7232,-0.7257,-0.7286,-0.7298,-0.731,-0.7344,-0.7329,-0.7344,-0.7329,-0.7322,-0.7362,-0.7363,-0.7382,-0.7393,-0.7378,-0.7442,-0.7429,-0.7403,-0.7362,-0.7433,-0.746,-0.7471,-0.7323,-0.7322,-0.7321,-0.732,0,0,-0.7347,-0.7346,-0.7358,-0.7363,-0.7366,-0.7386,-0.7419,-0.7436,-0.7451,-0.746,-0.7488,-0.752,-0.7496,-0.7505,-0.7491,-0.7517,-0.7586,-0.7488,-0.7488,-0.7507,-0.7658,-0.7677,-0.7691,-0.757,-0.7572,-0.7574,-0.7657,0,-0.7426,-0.7482,-0.7464,-0.7521,-0.7544,-0.7512,-0.7541,-0.7547,-0.7542,-0.7562,-0.7556,-0.758,-0.7546,-0.7551,-0.7576,-0.7572,-0.7616,-0.7566,-0.7597,-0.7598,-0.7597,-0.7705,-0.7725,-0.7804,-0.7668,-0.767,-0.7671,0,-0.7526,-0.7539,-0.7598,-0.7599,-0.7608,-0.7634,-0.765,-0.7669,-0.7676,-0.767,-0.7681,-0.7661,-0.7695,-0.7654,-0.7701,-0.7668,-0.7679,-0.768,-0.7682,-0.7685,-0.7639,-0.7711,-0.7829,-0.7841,-0.7687,-0.7686,-0.7685,0,-0.7605,-0.7638,-0.7677,-0.7683,-0.7684,-0.7704,-0.7705,-0.7709,-0.7722,-0.7736,-0.7744,-0.7762,-0.7772,-0.7787,-0.7773,-0.7744,-0.7822,-0.778,-0.782,-0.782,-0.7838,-0.7837,-0.796,-0.7845,-0.7845,-0.7844,-0.7844,0,-0.7696,-0.7734,-0.7713,-0.7738,-0.7779,-0.7759,-0.7801,-0.7799,-0.7804,-0.7828,-0.7801,-0.7825,-0.7805,-0.7827,-0.7817,-0.7858,-0.7863,-0.786,-0.7857,-0.7863,-0.7863,-0.787,-0.7865,-0.7848,-0.7847,-0.7846,-0.7846,0,-0.7791,-0.7779,-0.782,-0.7818,-0.7819,-0.785,-0.7849,-0.7872,-0.7865,-0.7897,-0.7903,-0.7893,-0.7918,-0.7906,-0.7932,-0.7925,-0.7978,-0.7967,-0.7976,-0.7973,-0.8014,-0.8011,-0.8146,-0.8163,-0.8037,-0.8038,-0.8039,0,-0.785,-0.7878,-0.788,-0.7894,-0.7897,-0.792,-0.7933,-0.7914,-0.7929,-0.7939,-0.7962,-0.7984,-0.8001,-0.8043,-0.8039,-0.8059,-0.8049,-0.8095,-0.8052,-0.8058,-0.8051,-0.805,-0.8053,-0.8104,-0.8106,-0.8107,-0.8108,0,-0.7956,-0.7949,-0.7967,-0.7985,-0.8,-0.8013,-0.8023,-0.8037,-0.8018,-0.8036,-0.8061,-0.8075,-0.8102,-0.8125,-0.8143,-0.8146,-0.8125,-0.8122,-0.8132,-0.8138,-0.8142,-0.8141,-0.8,-0.8118,-0.8117,-0.8117,-0.8116,-0.8116,-0.8035,-0.8059,-0.8064,-0.8086,-0.8092,-0.8103,-0.8125,-0.8121,-0.8142,-0.8162,-0.815,-0.818,-0.8187,-0.8209,-0.8215,-0.8239,-0.8221,-0.8235,-0.8239,-0.8243,-0.8249,-0.8138,-0.8242,-0.8242,-0.8241,-0.8241,-0.8241,0,-0.8141,-0.8142,-0.8163,-0.8178,-0.8196,-0.8174,-0.8185,-0.8201,-0.8228,-0.8236,-0.8254,-0.8283,-0.8306,-0.8304,-0.8325,-0.8345,-0.8336,-0.8351,-0.835,-0.8351,-0.8264,-0.8253,-0.8358,-0.8358,-0.8358,-0.8358,-0.8358,-0.8358,-0.8198,-0.8237,-0.8231,-0.8274,-0.8276,-0.8304,-0.8312,-0.8323,-0.8329,-0.8363,-0.8382,-0.838,-0.8385,-0.8407,-0.8427,-0.8426,-0.8435,-0.8455,-0.845,-0.8369,-0.8357,-0.8346,-0.8336,-0.8457,-0.8457,-0.8535,-0.8536,-0.8537]},{"header":{"parameterUnit":"m.s-1","parameterCategory":1,"la1":30.2991,"la2":30.254,"lo1":-89.0895,"lo2":-89.0444,"dx":0.0017,"dy":0.0017,"nx":28,"ny":28,"refTime":"2022-12-07T03:00:00:Z","depth":0,"parameterNumber":3,"parameterNumberName":"V-component_of_WINDS"},"data":[0,0,0,0,0,0,0,0,0,0,0,0,0,0,0,0,0,0,0,0,0,0,0,0,0,0,0,0,0,0,0,0,0,0,0,0,0,0,0,0,0,0,0,0,0,0,0,0,0,0,0,0,0,0,0,0,0,0,0.114,0.114,0,0.1087,0.1087,0.1086,0.1091,0.1092,0.1093,0.1094,0.1038,0.1036,0.1034,0,0,0,0,0,0,0,0,0,0,0,0,0,0.1245,0.1243,0.114,0.114,0.1139,0.1087,0.1087,0.1086,0.1091,0.1092,0.1093,0.1094,0.1039,0.1036,0.1034,0,0,0,0,0,0,0,0,0,0,0,0,0,0.1197,0.1243,0.114,0.1136,0.1135,0.1088,0.1087,0.1086,0.1091,0.1092,0.1094,0.1095,0.104,0.1037,0.1033,0.0987,0,0,0.1023,0.1021,0,0,0,0,0,0,0,0,0.1199,0.1193,0.1137,0.1136,0.1135,0.1097,0.1103,0.1053,0.1091,0.1108,0.1094,0.1095,0.1057,0.1052,0.1039,0.0985,0.0982,0.1023,0.102,0.1019,0.1018,0,0,0,0,0,0,0,0.1203,0.1195,0.1119,0.1136,0.1135,0.1136,0.113,0.1094,0.1076,0.1106,0.1106,0.11,0.1056,0.1043,0.1038,0.0981,0.1023,0.102,0.1018,0.1016,0.0887,0.0885,0,0,0,0,0,0,0.1207,0.1198,0.1121,0.1118,0.1171,0.1133,0.1127,0.1108,0.1076,0.1073,0.1099,0.1101,0.1048,0.1042,0.1036,0.098,0.1019,0.1016,0.1014,0.0888,0.0886,0.0885,0,0,0,0,0,0,0.121,0.1201,0.1123,0.1158,0.1148,0.113,0.1109,0.1106,0.1093,0.1071,0.1068,0.1088,0.1049,0.1041,0.1,0.0978,0.1014,0.1011,0.089,0.0888,0.0886,0.0868,0,0,0,0,0,0,0.1213,0.1201,0.1184,0.1157,0.1146,0.1088,0.1107,0.1104,0.1087,0.1088,0.106,0.1056,0.1049,0.1005,0.0996,0.0974,0.1009,0.0892,0.0889,0.0886,0.0871,0.0866,0.0862,0,0,0,0,0,0.1216,0.1181,0.1183,0.1174,0.1124,0.1086,0.108,0.1072,0.1085,0.1067,0.1054,0.1057,0.0982,0.1,0.0991,0.0968,0.0893,0.089,0.0887,0.0873,0.0867,0.0862,0,0,0,0,0,0,0.1204,0.1177,0.1179,0.1134,0.1113,0.1087,0.1065,0.1066,0.104,0.1043,0.1034,0.1028,0.0986,0.0973,0.0993,0.0922,0.0939,0.0934,0.0932,0.0926,0.0922,0.0925,0.1006,0,0,0,0,0,0.1196,0.1168,0.1146,0.1108,0.1098,0.1083,0.1066,0.1062,0.104,0.103,0.1014,0.0991,0.0962,0.0944,0.0916,0.0869,0.0863,0.0849,0.0844,0.0841,0.0836,0.081,0.0803,0.0875,0.0875,0.0875,0,0,0.118,0.1161,0.1144,0.1105,0.1088,0.1059,0.1075,0.1044,0.1022,0.1025,0.0985,0.0973,0.0947,0.0902,0.0882,0.089,0.0815,0.0837,0.0834,0.0831,0.0806,0.0799,0.0793,0.0872,0.0873,0.0873,0,0,0.1134,0.1118,0.1084,0.1067,0.1042,0.1032,0.1024,0.0999,0.0991,0.0951,0.0953,0.0927,0.0878,0.0859,0.0844,0.0792,0.0795,0.0784,0.076,0.0735,0.0729,0.0724,0.0706,0.0699,0.0779,0.0779,0.0779,0,0.1116,0.1073,0.1067,0.1035,0.1018,0.1021,0.0987,0.0971,0.0937,0.0925,0.0935,0.0874,0.0856,0.0808,0.0796,0.0783,0.0773,0.0786,0.0731,0.0726,0.0721,0.0703,0.0696,0.0778,0.0778,0.0778,0.0778,0,0.1052,0.1022,0.0999,0.0967,0.0947,0.0914,0.0903,0.0884,0.0882,0.0872,0.0831,0.0811,0.0779,0.0768,0.0765,0.0719,0.0725,0.0733,0.075,0.0713,0.0696,0.0689,0.0776,0.0777,0.0777,0.0777,0,0,0.0997,0.0963,0.0954,0.094,0.0912,0.0889,0.0856,0.0826,0.081,0.0787,0.0759,0.0718,0.0725,0.0708,0.0703,0.0682,0.0642,0.0692,0.0691,0.0683,0.0589,0.0583,0.0575,0.0644,0.0643,0.0642,0.0591,0,0.0948,0.0891,0.0885,0.0834,0.0807,0.0809,0.0781,0.0761,0.0751,0.0725,0.0714,0.0685,0.0697,0.0686,0.0665,0.0651,0.0623,0.0655,0.0618,0.0616,0.0623,0.0566,0.0559,0.0513,0.0585,0.0584,0.0583,0,0.0884,0.086,0.0806,0.0783,0.0771,0.0746,0.0718,0.0694,0.0671,0.0665,0.0646,0.0644,0.0611,0.063,0.0584,0.0606,0.059,0.0582,0.058,0.0575,0.0597,0.056,0.0498,0.0491,0.0572,0.0573,0.0574,0,0.0848,0.0802,0.0764,0.0752,0.0724,0.0706,0.0694,0.0672,0.0655,0.063,0.0619,0.0591,0.0575,0.0553,0.0544,0.0559,0.0498,0.0517,0.0492,0.0492,0.0478,0.0479,0.0413,0.047,0.047,0.047,0.047,0,0.0794,0.0761,0.0748,0.0725,0.0688,0.0681,0.0645,0.0633,0.0614,0.0588,0.0589,0.0565,0.0555,0.0529,0.0522,0.0485,0.0478,0.0472,0.047,0.0471,0.0472,0.046,0.0463,0.0468,0.0468,0.0469,0.0469,0,0.0748,0.0738,0.0696,0.0674,0.0667,0.0641,0.0621,0.0598,0.0589,0.0556,0.0548,0.0533,0.0503,0.0492,0.0455,0.045,0.0407,0.0408,0.0414,0.0414,0.0389,0.0392,0.0312,0.0301,0.0366,0.0366,0.0365,0,0.0714,0.0688,0.0663,0.0646,0.0633,0.0606,0.0588,0.0581,0.0562,0.0535,0.0515,0.0486,0.0461,0.0412,0.0398,0.037,0.037,0.0344,0.0366,0.0368,0.0369,0.037,0.0368,0.034,0.0339,0.0339,0.0338,0,0.0654,0.0651,0.0625,0.0598,0.0577,0.0555,0.0534,0.052,0.051,0.0489,0.0459,0.044,0.0402,0.0372,0.0344,0.033,0.0332,0.0332,0.0324,0.0325,0.0329,0.0326,0.0403,0.0333,0.0334,0.0334,0.0334,0.0335,0.0612,0.059,0.0569,0.0541,0.0525,0.0505,0.0483,0.0471,0.0445,0.0414,0.0412,0.0379,0.0357,0.0319,0.0304,0.0278,0.0285,0.0275,0.0272,0.0269,0.0267,0.0334,0.0273,0.0273,0.0273,0.0273,0.0273,0,0.0552,0.0539,0.0514,0.0484,0.0462,0.0467,0.0444,0.0425,0.0396,0.0376,0.0352,0.0317,0.0288,0.0272,0.0243,0.0225,0.0225,0.0218,0.0219,0.0215,0.0262,0.0271,0.0218,0.0218,0.0218,0.0218,0.0218,0.0218,0.0519,0.0481,0.0475,0.043,0.0417,0.0385,0.0371,0.0353,0.0337,0.0298,0.0274,0.0264,0.0245,0.0215,0.0189,0.0185,0.0174,0.0166,0.0162,0.0206,0.0212,0.0217,0.0226,0.0164,0.0164,0.0117,0.0117,0.0117]}]]